Concordia, KS

5:37 PM CST on February 09, 2016 (GMT -0600)
Blosser Municipal

Weather History for KCNK - November, 2013

Change the Weather History Date:

Saturday, November 2, 2013

  Actual Average Record
Temperature  
Mean Temperature 46 °F 49 °F  
Max Temperature 60 °F 60 °F 80 °F (1978)
Min Temperature 32 °F 38 °F 8 °F (1991)
Degree Days  
Heating Degree Days 19 16  
Month to date heating degree days 33 32  
Since 1 July heating degree days 377 423  
Cooling Degree Days 0 0  
Month to date cooling degree days 0 0  
Year to date cooling degree days 1359 1348  
Moisture  
Dew Point 28 °F    
Average Humidity 56    
Maximum Humidity 85    
Minimum Humidity 26    
Precipitation  
Precipitation 0.00 in 0.05 in 1.33 in (1938)
Month to date precipitation 0.00 0.10  
Year to date precipitation 25.50 26.03  
Snow  
Snow 0.00 in 0.10 in 0.40 in (1995)
Month to date snowfall 0.0 0.1  
Year to date snowfall 20.3 14.0  
Since 1 July snowfall 0.0 0.3  
Snow Depth 0.00 in    
Sea Level Pressure  
Sea Level Pressure 30.18 in    
Wind  
Wind Speed 10 mph (West)    
Max Wind Speed 21 mph    
Max Gust Speed 27 mph    
Visibility 10 miles    
Events      
T = Trace of Precipitation, MM = Missing Value Source: NWS Daily Summary

Daily Weather History Graph

Daily Weather History Graph

Search for Another Location

Airport or City:

Trip Planner

Search our weather history database for the weather conditions in past years. The results will help you decide how hot, cold, wet, or windy it might be!

Date:

Astronomy

Nov. 02, 2013 Rise Set
Actual Time 8:00 AM CDT 6:27 PM CDT
Civil Twilight 7:32 AM CDT 6:55 PM CDT
Nautical Twilight 7:00 AM CDT 7:27 PM CDT
Astronomical Twilight 6:29 AM CDT 7:58 PM CDT
Moon 6:59 AM CDT (11/2) 5:59 PM CDT (11/2)
Length of Visible Light 11h 23m
Length of Day
10h 27m
Waning Crescent, 1% of the Moon is Illuminated
Nov 2
Waning Crescent
Nov 3
New
Nov 9
First Quarter
Nov 17
Full
Nov 25
Last Quarter

Hourly Weather History & Observations

Time (CDT) Temp. Windchill Dew Point Humidity Pressure Visibility Wind Dir Wind Speed Gust Speed Precip Events Conditions
12:55 AM 39.9 °F 33.9 °F 32.0 °F 73% 30.11 in 10.0 mi WNW 9.2 mph - N/A   Clear
1:55 AM 39.0 °F 32.8 °F 32.0 °F 76% 30.12 in 10.0 mi WNW 9.2 mph - N/A   Clear
2:55 AM 37.0 °F 31.0 °F 30.9 °F 79% 30.14 in 10.0 mi WNW 8.1 mph - N/A   Clear
3:55 AM 36.0 °F 28.5 °F 30.9 °F 82% 30.15 in 10.0 mi West 10.4 mph - N/A   Clear
4:55 AM 35.1 °F 27.4 °F 30.0 °F 82% 30.17 in 10.0 mi WNW 10.4 mph - N/A   Clear
5:55 AM 34.0 °F 26.6 °F 28.9 °F 82% 30.19 in 10.0 mi WNW 9.2 mph - N/A   Clear
6:55 AM 33.1 °F 25.5 °F 28.0 °F 82% 30.22 in 10.0 mi WNW 9.2 mph - N/A   Clear
7:55 AM 32.0 °F 23.6 °F 28.0 °F 85% 30.24 in 10.0 mi West 10.4 mph - N/A   Clear
8:55 AM 36.0 °F 28.5 °F 28.9 °F 76% 30.24 in 10.0 mi West 10.4 mph - N/A   Clear
9:55 AM 41.0 °F 34.7 °F 30.0 °F 65% 30.27 in 10.0 mi WNW 10.4 mph - N/A   Clear
10:55 AM 48.0 °F - 30.9 °F 52% 30.27 in 10.0 mi WNW 9.2 mph - N/A   Clear
11:55 AM 51.1 °F - 32.0 °F 48% 30.28 in 10.0 mi West 11.5 mph - N/A   Clear
12:55 PM 55.0 °F - 28.0 °F 35% 30.25 in 10.0 mi NW 6.9 mph - N/A   Clear
1:55 PM 57.0 °F - 27.0 °F 32% 30.22 in 10.0 mi West 9.2 mph - N/A   Clear
2:55 PM 59.0 °F - 26.1 °F 28% 30.19 in 10.0 mi WNW 13.8 mph - N/A   Clear
3:55 PM 59.0 °F - 25.0 °F 27% 30.17 in 10.0 mi Calm Calm - N/A   Clear
4:55 PM 59.0 °F - 25.0 °F 27% 30.16 in 10.0 mi Variable 5.8 mph - N/A   Clear
5:55 PM 55.0 °F - 25.0 °F 31% 30.14 in 10.0 mi South 5.8 mph - N/A   Clear
6:55 PM 48.9 °F - 25.0 °F 39% 30.14 in 10.0 mi South 8.1 mph - N/A   Clear
7:55 PM 46.0 °F 41.0 °F 26.1 °F 46% 30.14 in 10.0 mi South 10.4 mph - N/A   Clear
8:55 PM 46.9 °F - 27.0 °F 46% 30.12 in 10.0 mi South 10.4 mph - N/A   Clear
9:55 PM 46.0 °F 40.6 °F 28.0 °F 50% 30.11 in 10.0 mi South 11.5 mph - N/A   Clear
10:55 PM 46.9 °F - 28.0 °F 48% 30.10 in 10.0 mi South 15.0 mph - N/A   Clear
11:55 PM 46.9 °F - 28.9 °F 50% 30.08 in 10.0 mi South 17.3 mph 26.5 mph N/A   Clear